Halifax, Nova Scotia

10:37 AM ADT on April 23, 2017 (GMT -0300)
Halifax International

Weather History for CYHZ - February, 2013

Change the Weather History Date:

Friday, February 1, 2013

  Actual Average Record
Temperature  
Mean Temperature 28 °F -  
Max Temperature 34 °F 29 °F 43 °F (2016)
Min Temperature 19 °F 13 °F 0 °F (2011)
Degree Days  
Heating Degree Days 36    
Moisture  
Dew Point 19 °F    
Average Humidity 63    
Maximum Humidity 81    
Minimum Humidity 37    
Precipitation  
Precipitation 0.00 in 0.16 in - ()
Sea Level Pressure  
Sea Level Pressure 29.51 in    
Wind  
Wind Speed 19 mph ()    
Max Wind Speed 30 mph    
Max Gust Speed 40 mph    
Visibility 13.8 miles    
Events Snow    
Averages and records for this station are not official NWS values.
T = Trace of Precipitation, MM = Missing Value Source: Averaged Metar Reports

Daily Weather History Graph

Daily Weather History Graph

Search for Another Location

Airport or City:

Trip Planner

Search our weather history database for the weather conditions in past years. The results will help you decide how hot, cold, wet, or windy it might be!

Date:

Astronomy

Feb. 01, 2013 Rise Set
Actual Time 7:33 AM AST 5:22 PM AST
Civil Twilight 7:02 AM AST 5:53 PM AST
Nautical Twilight 6:27 AM AST 6:28 PM AST
Astronomical Twilight 5:52 AM AST 7:03 PM AST
Moon 11:44 PM AST (2/1) 9:46 AM AST (2/1)
Length of Visible Light 10h 51m
Length of Day
9h 49m
Waning Gibbous, 71% of the Moon is Illuminated
Feb 1
Waning Gibbous
Feb 3
Last Quarter
Feb 10
New
Feb 17
First Quarter
Feb 25
Full

Hourly Weather History & Observations

Time (AST) Temp. Windchill Dew Point Humidity Pressure Visibility Wind Dir Wind Speed Gust Speed Precip Events Conditions
12:00 AM 35.6 °F 24.0 °F 30.2 °F 81% 29.24 in 15.0 mi WSW 23.0 mph 28.8 mph N/A   Partly Cloudy
1:00 AM 35.6 °F 24.0 °F 26.6 °F 70% 29.26 in 15.0 mi WSW 23.0 mph 35.7 mph N/A   Scattered Clouds
2:00 AM 34 °F - 24 °F 57% 29.29 in 15 mi WSW 24.2 mph - -   Scattered Clouds
2:00 AM 33.8 °F 21.6 °F 24.8 °F 70% 29.29 in 15.0 mi SW 23.0 mph 36.8 mph N/A   Partly Cloudy
3:00 AM 33.8 °F 20.1 °F 23.0 °F 65% 29.31 in 15.0 mi WSW 29.9 mph 40.3 mph N/A   Scattered Clouds
4:00 AM 32.0 °F 20.1 °F 21.2 °F 64% 29.33 in 15.0 mi WSW 19.6 mph 27.6 mph N/A   Partly Cloudy
5:00 AM 30.2 °F 18.1 °F 21.2 °F 69% 29.36 in 15.0 mi WSW 18.4 mph 29.9 mph N/A   Partly Cloudy
6:00 AM 30.2 °F 17.8 °F 19.4 °F 64% 29.39 in 15.0 mi WSW 19.6 mph 26.5 mph N/A   Partly Cloudy
6:30 AM 30.2 °F 20.2 °F 21.2 °F 69% 29.41 in 15.0 mi West 12.7 mph - N/A Snow Light Snow Showers
7:00 AM 30.2 °F 18.5 °F 19.4 °F 64% 29.42 in 15.0 mi West 17.3 mph 25.3 mph N/A Snow Light Snow Showers
8:00 AM 29 °F - 22 °F 64% 29.45 in 15 mi WSW 23.0 mph - - Snow Light Snow Showers
8:00 AM 30.2 °F 16.8 °F 21.2 °F 69% 29.45 in 15.0 mi WSW 23.0 mph 32.2 mph N/A Snow Light Snow Showers
8:10 AM 28.4 °F 16.2 °F 21.2 °F 74% 29.46 in 15.0 mi WSW 17.3 mph 31.1 mph N/A   Scattered Clouds
9:00 AM 30.2 °F 17.1 °F 21.2 °F 69% 29.48 in 15.0 mi WSW 21.9 mph 27.6 mph N/A   Scattered Clouds
9:53 AM 32.0 °F 19.5 °F 21.2 °F 64% 29.49 in 15.0 mi WSW 21.9 mph 32.2 mph N/A Snow Light Snow Showers
10:00 AM 32.0 °F 18.6 °F 21.2 °F 64% 29.49 in 15.0 mi WSW 25.3 mph - N/A Snow Light Snow Showers
10:48 AM 30.2 °F 17.4 °F 21.2 °F 69% 29.51 in 8.0 mi WSW 20.7 mph 32.2 mph N/A   Light Small Hail Showers
11:00 AM 28.4 °F 13.8 °F 21.2 °F 74% 29.51 in 6.0 mi WSW 25.3 mph 35.7 mph N/A Snow Light Snow Showers
11:34 AM 30.2 °F 18.5 °F 21.2 °F 69% 29.52 in 10.0 mi West 17.3 mph 33.4 mph N/A Snow Light Snow Showers
12:00 PM 30.2 °F 15.9 °F 19.4 °F 64% 29.52 in 10.0 mi West 26.5 mph 34.5 mph N/A Snow Light Snow Showers
12:05 PM 30.2 °F 16.2 °F 21.2 °F 69% 29.53 in 2.0 mi West 25.3 mph 34.5 mph N/A Snow Light Snow Showers
12:17 PM 30.2 °F 16.8 °F 23.0 °F 75% 29.53 in 15.0 mi WSW 23.0 mph 38.0 mph N/A Snow Light Snow Showers
12:36 PM 30.2 °F 16.5 °F 19.4 °F 64% 29.52 in 10.0 mi West 24.2 mph 32.2 mph N/A Snow Light Snow Showers
1:00 PM 30.2 °F 15.7 °F 17.6 °F 60% 29.53 in 15.0 mi WSW 27.6 mph 33.4 mph N/A   Scattered Clouds
1:26 PM 30.2 °F 16.5 °F 17.6 °F 60% 29.53 in 15.0 mi West 24.2 mph 34.5 mph N/A   Mostly Cloudy
2:00 PM 31 °F - 15 °F 37% 29.55 in 15 mi West 23.0 mph - - Snow Light Snow Showers
2:00 PM 30.2 °F 15.9 °F 15.8 °F 55% 29.55 in 15.0 mi West 26.5 mph 32.2 mph N/A   Mostly Cloudy
3:00 PM 30.2 °F 16.8 °F 14.0 °F 51% 29.57 in 15.0 mi West 23.0 mph 28.8 mph N/A Snow Light Snow Showers
3:45 PM 30.2 °F 16.8 °F 14.0 °F 51% 29.59 in 15.0 mi West 23.0 mph 33.4 mph N/A   Scattered Clouds
4:00 PM 30.2 °F 17.4 °F 14.0 °F 51% 29.60 in 15.0 mi West 20.7 mph 31.1 mph N/A   Scattered Clouds
5:00 PM 28.4 °F 15.1 °F 12.2 °F 51% 29.65 in 15.0 mi West 20.7 mph 33.4 mph N/A   Mostly Cloudy
6:00 PM 26.6 °F 16.8 °F 12.2 °F 55% 29.68 in 15.0 mi West 10.4 mph 23.0 mph N/A   Partly Cloudy
7:00 PM 24.8 °F 16.9 °F 12.2 °F 59% 29.71 in 15.0 mi West 6.9 mph - N/A   Scattered Clouds
8:00 PM 24 °F - 13 °F 49% 29.73 in 15 mi WNW 8.1 mph - -   Partly Cloudy
8:00 PM 24.8 °F 16.1 °F 12.2 °F 59% 29.73 in 15.0 mi WNW 8.1 mph - N/A   Scattered Clouds
9:00 PM 23.0 °F 11.7 °F 12.2 °F 63% 29.74 in 15.0 mi WNW 11.5 mph - N/A   Mostly Cloudy
10:00 PM 23.0 °F 12.4 °F 12.2 °F 63% 29.77 in 15.0 mi WNW 10.4 mph - N/A   Mostly Cloudy
11:00 PM 19.4 °F 5.5 °F 10.4 °F 68% 29.78 in 15.0 mi NNW 15.0 mph - N/A   Mostly Cloudy